Weather History for Shymkent, Kazakhstan

Change the Weather History Date:

Sunday, December 9, 2012

  Actual Average Record
Temperature  
Mean Temperature 47 °F -  
Max Temperature 57 °F - - ()
Min Temperature 37 °F - - ()
Degree Days  
Heating Degree Days 18    
Moisture  
Dew Point 38 °F    
Average Humidity 75    
Maximum Humidity 100    
Minimum Humidity 38    
Precipitation  
Precipitation 0.16 in - - ()
Sea Level Pressure  
Sea Level Pressure 30.14 in    
Wind  
Wind Speed 5 mph ()    
Max Wind Speed 9 mph    
Max Gust Speed 20 mph    
Visibility 3.1 miles    
Events Rain    
T = Trace of Precipitation, MM = Missing Value Source: Averaged Metar Reports

Daily Weather History Graph

Daily Weather History Graph

Search for Another Location

Airport:

Trip Planner

Search our weather history database for the weather conditions in past years. The results will help you decide how hot, cold, wet, or windy it might be!

Date:

Astronomy

Dec. 09, 2012 Rise Set
Actual Time 8:39 AM ALMT 5:49 PM ALMT
Civil Twilight 8:07 AM ALMT 6:21 PM ALMT
Nautical Twilight 7:32 AM ALMT 6:56 PM ALMT
Astronomical Twilight 6:58 AM ALMT 7:30 PM ALMT
Moon 3:37 AM ALMT (12/9) 2:43 PM ALMT (12/9)
Length of Visible Light 10h 13m
Length of Day
9h 09m
Waning Crescent, 23% of the Moon is Illuminated
Dec 9
Waning Crescent
Dec 13
New
Dec 20
First Quarter
Dec 28
Full
Jan 5
Last Quarter

Hourly Weather History & Observations

Time (ALMT) Temp. Windchill Dew Point Humidity Pressure Visibility Wind Dir Wind Speed Gust Speed Precip Events Conditions
12:00 AM 43 °F - 41 °F 90% 30.28 in - SW 6.7 mph - - Rain Light Rain Showers
12:00 AM 44.6 °F 39.8 °F 41.0 °F 87% 30.21 in 5.0 mi South 8.9 mph 20.1 mph N/A Rain Light Rain Showers
12:30 AM 46.4 °F 43.0 °F 41.0 °F 81% 30.21 in 5.0 mi SE 6.7 mph 17.9 mph N/A Rain Light Rain Showers
1:00 AM 44.6 °F 40.8 °F 41.0 °F 87% 30.21 in 5.0 mi SE 6.7 mph 17.9 mph N/A Rain Light Rain Showers
1:30 AM 44.6 °F 40.8 °F 41.0 °F 87% 30.21 in 5.0 mi SE 6.7 mph 17.9 mph N/A Rain Light Rain Showers
2:00 AM 42.8 °F 38.7 °F 39.2 °F 87% 30.21 in 5.0 mi SE 6.7 mph 17.9 mph N/A Rain Light Rain Showers
2:30 AM 41.0 °F 36.5 °F 39.2 °F 93% 30.21 in 5.0 mi SE 6.7 mph 17.9 mph N/A Rain Light Rain Showers
3:00 AM 43 °F - 41 °F 90% 30.25 in - ESE 4.5 mph - -   Mist
3:00 AM 39.2 °F 33.1 °F 39.2 °F 100% 30.21 in 6.2 mi SE 8.9 mph - N/A   Overcast
3:30 AM 41.0 °F 38.1 °F 41.0 °F 100% 30.21 in 5.0 mi ESE 4.5 mph - N/A   Mostly Cloudy
4:00 AM 41.0 °F 38.1 °F 37.4 °F 87% 30.21 in 5.0 mi ENE 4.5 mph - N/A   Mostly Cloudy
4:30 AM 37.4 °F 33.9 °F 35.6 °F 93% 30.21 in 3.1 mi ENE 4.5 mph - N/A   Mostly Cloudy
5:00 AM 37.4 °F 33.9 °F 33.8 °F 87% 30.21 in 1.9 mi ESE 4.5 mph - N/A   Mostly Cloudy
5:30 AM 37.4 °F 30.9 °F 37.4 °F 100% 30.18 in 2.2 mi SE 8.9 mph - N/A   Mostly Cloudy
6:00 AM 38 °F - 35 °F 86% 30.24 in - ESE 2.2 mph - -   Mist
6:00 AM 39.2 °F 33.1 °F 39.2 °F 100% 30.18 in 3.1 mi ESE 8.9 mph - N/A   Scattered Clouds
6:30 AM 35.6 °F 30.0 °F 35.6 °F 100% 30.18 in 3.1 mi SE 6.7 mph - N/A   Scattered Clouds
7:00 AM 35.6 °F 31.8 °F 35.6 °F 100% 30.18 in 3.1 mi SE 4.5 mph - N/A   Scattered Clouds
7:30 AM 35.6 °F 30.0 °F 35.6 °F 100% 30.18 in 3.1 mi ESE 6.7 mph - N/A   Scattered Clouds
8:00 AM 35.6 °F 28.7 °F 33.8 °F 93% 30.18 in 3.1 mi ESE 8.9 mph - N/A   Scattered Clouds
8:30 AM 35.6 °F 28.7 °F 35.6 °F 100% 30.18 in 3.1 mi ESE 8.9 mph - N/A   Scattered Clouds
9:00 AM 35.6 °F 30.0 °F 33.8 °F 93% 30.18 in 3.1 mi ESE 6.7 mph - N/A   Scattered Clouds
9:30 AM 37.4 °F 33.9 °F 35.6 °F 93% 30.18 in 3.1 mi SSE 4.5 mph - N/A   Scattered Clouds
10:00 AM 41.0 °F 36.5 °F 35.6 °F 81% 30.18 in 3.1 mi SE 6.7 mph - N/A   Scattered Clouds
10:30 AM 44.6 °F 40.8 °F 39.2 °F 81% 30.18 in 3.1 mi ESE 6.7 mph - N/A   Scattered Clouds
11:00 AM 48.2 °F - 39.2 °F 71% 30.18 in 3.1 mi SE 6.7 mph - N/A   Scattered Clouds
11:30 AM 50.0 °F - 41.0 °F 71% 30.18 in - SE 4.5 mph - N/A   Clear
12:00 PM 51 °F - 39 °F 53% 30.17 in 31 mi ESE 4.5 mph - -   Clear
12:00 PM 51.8 °F - 41.0 °F 67% 30.15 in - ESE 4.5 mph - N/A   Clear
12:30 PM 53.6 °F - 39.2 °F 58% 30.15 in - Calm Calm - N/A   Clear
1:00 PM 57.2 °F - 41.0 °F 55% 30.12 in - Variable 2.2 mph - N/A   Clear
1:30 PM 57.2 °F - 37.4 °F 48% 30.12 in - Variable 2.2 mph - N/A   Clear
2:00 PM 57.2 °F - 39.2 °F 51% 30.12 in - Variable 2.2 mph - N/A   Clear
2:30 PM 57.2 °F - 35.6 °F 44% 30.12 in - Variable 2.2 mph - N/A   Clear
3:00 PM 56 °F - 37 °F 38% 30.09 in 31 mi ENE 2.2 mph - -   Clear
3:00 PM 57.2 °F - 35.6 °F 44% 30.09 in - Variable 2.2 mph - N/A   Clear
3:30 PM 57.2 °F - 35.6 °F 44% 30.09 in - NNE 4.5 mph - N/A   Clear
4:00 PM 57.2 °F - 37.4 °F 48% 30.09 in - NNE 6.7 mph - N/A   Clear
4:30 PM 57.2 °F - 37.4 °F 48% 30.09 in - NNE 6.7 mph - N/A   Clear
5:00 PM 55.4 °F - 35.6 °F 47% 30.09 in - NNE 4.5 mph - N/A   Clear
5:30 PM 53.6 °F - 37.4 °F 54% 30.09 in - NNE 4.5 mph - N/A   Clear
6:00 PM 50 °F - 40 °F 59% 30.09 in 31 mi NNE 2.2 mph - -   Clear
6:00 PM 50.0 °F - 37.4 °F 62% 30.09 in - North 4.5 mph - N/A   Clear
6:30 PM 50.0 °F - 37.4 °F 62% 30.09 in 3.1 mi NE 4.5 mph - N/A   Smoke
7:00 PM 48.2 °F - 39.2 °F 71% 30.06 in 3.1 mi ENE 2.2 mph - N/A   Smoke
7:30 PM 48.2 °F - 39.2 °F 71% 30.06 in 1.2 mi East 6.7 mph - N/A   Overcast
8:00 PM 48.2 °F - 37.4 °F 66% 30.06 in 1.2 mi East 6.7 mph - N/A   Overcast
8:30 PM 42.8 °F 38.7 °F 35.6 °F 76% 30.06 in 1.2 mi ESE 6.7 mph - N/A   Overcast
9:00 PM 44.6 °F 42.3 °F 37.4 °F 76% 30.06 in 1.2 mi East 4.5 mph - N/A   Overcast
9:30 PM 42.8 °F - 35.6 °F 76% 30.04 in 1.2 mi East 2.2 mph - N/A   Overcast
10:00 PM 42.8 °F - 35.6 °F 76% 30.04 in 1.2 mi East 2.2 mph - N/A   Overcast
10:30 PM 39.2 °F - 33.8 °F 81% 30.04 in 1.2 mi Variable 2.2 mph - N/A   Overcast
11:00 PM 41.0 °F - 33.8 °F 76% 30.04 in 2.5 mi Calm Calm - N/A   Overcast
11:30 PM 37.4 °F - 32.0 °F 81% 30.04 in 1.2 mi ESE 2.2 mph - N/A   Overcast